THOR ABLESTAR R/B, 669

Orbit data source: Space-Track

THOR ABLESTAR R/B, 669 is space debris in LEO originally from a launch on Sat, 28 Sep 1963 UTC launched from the Air Force Western Test Range (AFWTR). Debris objects in space refer to the collection of defunct objects orbiting the Earth. Examples of debris include non-operational satellites, rocket bodies, and fragments generated from explosions, collisions, or faulty payload assembly.

Loading next visibility...
Identifier
669, 1963-038A
Orbit
LEO
Country
Flag of USUS
Related business
Manufacturer
Aerojet
Mission
Spacecraft
Bus & Motor
ABLESTAR, Unknown motor
Mass
~600 kg wet, 600 kg dry
Launch date (UTC)
1963-09-28 (63 years ago)
Launch vehicle
Unknown
Launch site
Air Force Western Test Range (AFWTR)
Object type
Payload
Rocket body
Debris
Shape & HBR
Unknown
Radar Cross Section
Large (>1 m²)

Expand to show TLE details & history
Last TLE update: 17 hours ago

TLE from 17 hours ago
0 THOR ABLESTAR R/B
1 00669U 63038A   26125.08546936  .00000035  00000-0  43027-4 0  9996
2 00669  89.9744 334.3108 0024542 238.4390 292.0756 13.46130305 73908
Epoch: 2026-05-05T02:03Z
TLE epoch observation values (Epoch: 2026-05-05T02:03:04.552Z)
Latitude
9.68937°
Longitude
-99.42789°
Altitude
1,081.897 km
Speed
7.315 km/s
True Right ascension
10h 17m 13s
True Declination
9° 38' 06"
Sunlit
Object was in daylight at epoch
Visualization orbit readout
Latitude
Unknown
Longitude
Unknown
Altitude
Unknown
Speed
Unknown
Apparent Right ascension
Unknown
Apparent Declination
Unknown
Sunlit
N/A
Visualization observer readout
Local Sidereal Time
02:56:42
Azimuth
Unknown
Elevation
Unknown
Doppler factor
Unknown
Orbital elements
Apogee altitude
1,101.898 km
Perigee altitude
1,065.273 km
Semi-major axis
7,461.722 km
Eccentricity
0.00245
Inclination
89.9744°
RAAN
334.3108°
Arg. of periapsis
238.439°
True anomaly
291.81469°
Mean anomaly
292.0756°
Eccentric anomaly
291.94517°
Mean motion
3.36732 °/min
Orbital period
106.91 mins
BSTAR
0.000043027
Loading maneuver chart data...
Computing Atmospheric mass density...

Documentation

Showing up to 5 results
|